Weather in Svetlogorsk

Russia / Chelyabinsk Oblast     53°08′11″N   59°09′07″E
temp.,
°C
wind,
m/s
gust,
m/s
humid.,
%
clouds,
%
prec.,
mm/h
press.,
hPa
HPBL,
m
9 august, tue
tue923:00+18nne2285100 0.7 101832
02:00+17nne2290100 0.0 101818
05:00+16nnw22918 0.0 101816
08:00+19n35785 0.0 1018235
11:00+24ne56611 0.3 10181099
14:00+26ne564763 0.1 10172218
17:00+25nne3452100 0.1 1017523
20:00+22ene226259 0.0 101713
10 august, wed
wed1023:00+18ene22725 0.0 101716
02:00+16nne22775 0.0 101815
05:00+15nne228267 0.0 101913
08:00+19nne23715 0.0 1019198
11:00+24ne33525 0.0 10191086
14:00+26ne3343100 0.0 10181648
17:00+26ne22426 0.0 10171821
20:00+22e22575 0.0 101817
11 august, thu
thu1123:00+19ese006389 0.0 101811
02:00+18w00695 0.0 101811
05:00+17wsw22725 0.0 101816
08:00+21sw22621 0.0 1019136
11:00+26wsw34440 0.0 1018931
14:00+29wsw343732 0.0 10172537
17:00+28wsw3542100 0.0 10161497
20:00+24w226099 0.0 101622
12 august, fri
fri1223:00+20w1165100 0.0 101611
02:00+19wnw3473100 0.0 101652
05:00+17n358763 0.1 101784
08:00+18nne468170 0.4 1019549
11:00+20nne4456100 0.4 10191276
14:00+23n4442100 0.0 10191648
17:00+23nne3440100 0.0 10181843
20:00+19n485428 0.0 1019287
13 august, sat
sat1323:00+15nnw410650 0.0 1020236
02:00+13nw22720 0.0 102114
05:00+13wnw34730 0.0 102150
08:00+17wnw46640 0.0 1021231
11:00+22nw45490 0.0 10201091
14:00+25nnw45445 0.0 10191671
17:00+26nw554149 0.0 10191991
20:00+22nnw5955100 0.0 1020305